Location: Katowice
(50.2611°N, 19.0242°E)
Time: 23:19:11
(UTC+02:00)

A-11 Canister half - Pass Details

Date: 21 July 2019
Orbit: 1526 x 1683 km, 47.3° (Epoch: 23 August)

Event Time Altitude Azimuth Distance (km) Brightness Sun altitude
Rises 20:04:30 0° 202° (SSW) 4,917 11.6 4.5°
Reaches altitude 10° 20:08:10 10° 193° (SSW) 3,921 11.0 3.9°
Maximum altitude 20:16:26 30° 137° (SE) 2,622 9.8 2.8°
Drops below altitude 10° 20:24:32 10° 81° (E) 3,849 10.7 1.7°
Sets 20:28:05 0° 71° (ENE) 4,814 11.2 1.2°
